Regional Weather Roundup
Issued by NWS

Home | Current Version | Previous Version | Graphics & Text | Print | Product List | Glossary On
Versions: 1 2 3 4 5 6 7 8 9 10 11 12 13 14 15 16 17 18 19 20 21 22 23 24 25 26 27 28 29 30 31 32 33 34 35 36 37 38 39 40 41 42 43 44 45 46 47 48 49 50
000
ASUS43 KMKX 241811
RWRWI

WISCONSIN REGIONAL WEATHER ROUNDUP
NATIONAL WEATHER SERVICE MILWAUKEE/SULLIVAN WI
100 PM CDT TUE APR 24 2018

NOTE: "FAIR" INDICATES FEW OR NO CLOUDS BELOW 12,000 FEET WITH NO
SIGNIFICANT WEATHER AND/OR OBSTRUCTIONS TO VISIBILITY.

WIZ001-002-006>008-014>016-023>028-241900-
NORTHWEST WISCONSIN

CITY           SKY/WX    TMP DP  RH WIND       PRES   REMARKS
SUPERIOR ARPT  CLOUDY    47  29  49 NE3       30.23F
6HR MIN TEMP:  35; 6HR MAX TEMP:  48;

ASHLAND        FAIR      49  30  48 NE13      30.22S
6HR MIN TEMP:  40; 6HR MAX TEMP:  51;

HAYWARD        FAIR      57  32  38 N10G21    30.17F
6HR MIN TEMP:  34; 6HR MAX TEMP:  57;

SIREN          PTSUNNY   58  28  32 N16G22    30.18S
6HR MIN TEMP:  34; 6HR MAX TEMP:  61;

CUMBERLAND     FAIR      55  30  38 N10G21    30.15F
RICE LAKE      FAIR      61  31  32 N13       30.16S
6HR MIN TEMP:  32; 6HR MAX TEMP:  61;

CHETEK         FAIR      61  33  34 N10G22    30.13S
6HR MIN TEMP:  33; 6HR MAX TEMP:  62;

LADYSMITH      FAIR      62  34  34 N10G16    30.14F
6HR MIN TEMP:  34; 6HR MAX TEMP:  62;

EAU CLAIRE     PTSUNNY   68  34  28 N14       30.09F
6HR MIN TEMP:  37; 6HR MAX TEMP:  70;

MENOMONIE      FAIR      65  33  30 N13       30.11S
6HR MIN TEMP:  38; 6HR MAX TEMP:  68;

NEW RICHMOND   FAIR      61  29  30 NE15G22   30.16S
6HR MIN TEMP:  37; 6HR MAX TEMP:  61;

OSCEOLA        FAIR      63  32  31 N12G17    30.19S
6HR MIN TEMP:  36; 6HR MAX TEMP:  63;

$$

WIZ003>005-009-010-017-018-241900-
NORTH CENTRAL WISCONSIN

CITY           SKY/WX    TMP DP  RH WIND       PRES   REMARKS
MANITOWISH WTR FAIR      54  29  38 N9        30.13F
6HR MIN TEMP:  28; 6HR MAX TEMP:  54;

ARBOR VITAE    PTSUNNY   57  31  37 NE12      30.11F
6HR MIN TEMP:  33; 6HR MAX TEMP:  57;

WOODRUFF       PTSUNNY   57  31  37 NE12      30.11F
6HR MIN TEMP:  33; 6HR MAX TEMP:  57;

RHINELANDER    FAIR      62  32  32 N9        30.10S
6HR MIN TEMP:  32; 6HR MAX TEMP:  62;

EAGLE RIVER    FAIR      57  30  35 N14       30.10F
6HR MIN TEMP:  30; 6HR MAX TEMP:  57;

LAND O LAKES   CLOUDY    54  30  40 N8G16     30.13F
6HR MIN TEMP:  30; 6HR MAX TEMP:  55;

PHILLIPS       FAIR      59  33  38 N13G18    30.11F
6HR MIN TEMP:  31; 6HR MAX TEMP:  59;

TOMAHAWK       FAIR      62  32  31 N10G16    30.10S
6HR MIN TEMP:  29; 6HR MAX TEMP:  63;

MEDFORD        CLOUDY    63  38  40 NW7       30.08S
6HR MIN TEMP:  34; 6HR MAX TEMP:  65;

MERRILL        FAIR      66  36  32 NW9       30.07F
6HR MIN TEMP:  31; 6HR MAX TEMP:  69;

$$

WIZ029-030-035-036-043>047-241900-
CENTRAL WISCONSIN

CITY           SKY/WX    TMP DP  RH WIND       PRES   REMARKS
WAUSAU         FAIR      68  31  25 VRB6      30.04F
6HR MIN TEMP:  37; 6HR MAX TEMP:  69;

MOSINEE        MOSUNNY   66  28  24 VRB3      30.07F
MARSHFIELD     FAIR      68  34  28 W8        30.06F
6HR MIN TEMP:  39; 6HR MAX TEMP:  68;

STEVENS POINT  FAIR      66  29  24 NE6       30.06F
6HR MIN TEMP:  30; 6HR MAX TEMP:  66;

WAUPACA        FAIR      68  27  21 NE5       30.06F
6HR MIN TEMP:  36; 6HR MAX TEMP:  69;

WAUTOMA        FAIR      68  29  23 NW8       30.04F
6HR MIN TEMP:  35; 6HR MAX TEMP:  69;

WISC RAPIDS    FAIR      68  31  25 CALM      30.06F
6HR MIN TEMP:  34; 6HR MAX TEMP:  69;

CAMP DOUGLAS   MOSUNNY   70  34  26 NW8       30.06F
$$

WIZ011>013-019>022-031-037>040-048>050-241900-
NORTHEAST WISCONSIN

CITY           SKY/WX    TMP DP  RH WIND       PRES   REMARKS
ANTIGO         FAIR      64  35  33 NW5       30.06F
6HR MIN TEMP:  34; 6HR MAX TEMP:  64;

SHAWANO        FAIR      67  31  26 SE3       30.05F
6HR MIN TEMP:  34; 6HR MAX TEMP:  67;

OCONTO         FAIR      61  28  28 SE7       30.06F
6HR MIN TEMP:  30; 6HR MAX TEMP:  61;

STURGEON BAY   FAIR      59  22  24 E8        30.07F
6HR MIN TEMP:  42; 6HR MAX TEMP:  60;

GREEN BAY      FAIR      62  34  35 VRB6      30.06F
6HR MIN TEMP:  36; 6HR MAX TEMP:  62;

MANITOWOC      CLOUDY    55  46  71 SE8       30.07F
6HR MIN TEMP:  42; 6HR MAX TEMP:  57;

APPLETON       MOSUNNY   64  28  25 VRB5      30.04F
CLINTONVILLE   CLOUDY    66  26  21 NE3       30.06S
6HR MIN TEMP:  35; 6HR MAX TEMP:  66;

OSHKOSH        FAIR      62  28  27 NE10      30.05F
6HR MIN TEMP:  41; 6HR MAX TEMP:  63;

$$

WIZ032>034-041-042-053>061-241900-
SOUTHWEST WISCONSIN

CITY           SKY/WX    TMP DP  RH WIND       PRES   REMARKS
LA CROSSE      FAIR      71  35  26 W10       30.06F
6HR MIN TEMP:  41; 6HR MAX TEMP:  71;

SPARTA         FAIR      70  33  25 W9        30.07F
6HR MIN TEMP:  31; 6HR MAX TEMP:  71;

VIROQUA        FAIR      67  36  31 N6        30.07F
6HR MIN TEMP:  46; 6HR MAX TEMP:  67;

BOSCOBEL       FAIR      73  29  19 VRB6      30.05F
6HR MIN TEMP:  34; 6HR MAX TEMP:  74;

PRAIRIE DU CHI FAIR      71  28  19 NW13      30.06F
6HR MIN TEMP:  37; 6HR MAX TEMP:  71;

PLATTEVILLE    FAIR      68  31  25 N9        30.05F
6HR MIN TEMP:  42; 6HR MAX TEMP:  69;

$$

WIZ056-057-062-063-064-067-068-241900-
SOUTH CENTRAL WISCONSIN

CITY           SKY/WX    TMP DP  RH WIND       PRES   REMARKS
REEDSBURG      FAIR      68  32  26 NW8       30.05F
6HR MIN TEMP:  35; 6HR MAX TEMP:  69;

BARABOO/DELLS  FAIR      69  27  21 NE7       30.05F
6HR MIN TEMP:  34; 6HR MAX TEMP:  69;

LONE ROCK      FAIR      71  31  22 NW8       30.04F
6HR MIN TEMP:  32; 6HR MAX TEMP:  72;

MINERAL POINT  FAIR      70  28  21 N8        30.05F
MADISON        FAIR      69  30  23 N8        30.04F
6HR MIN TEMP:  36; 6HR MAX TEMP:  69;

MIDDLETON      FAIR      69  29  22 N9        30.05F
6HR MIN TEMP:  37; 6HR MAX TEMP:  69;

WATERTOWN      FAIR      66  34  30 N6        30.03F
MONROE         FAIR      68  21  17 N8        30.04F
JANESVILLE     MOSUNNY   70  25  18 N14       30.03F
$$

WIZ051-052-058>065-066-070>072-241900-
SOUTHEAST WISCONSIN

CITY           SKY/WX    TMP DP  RH WIND       PRES   REMARKS
MILWAUKEE      FAIR      58  42  55 NE8       30.06F
6HR MIN TEMP:  47; 6HR MAX TEMP:  59;

WAUKESHA       SUNNY     64  34  32 NE6       30.04F
MILWAUKEE/TIMM SUNNY     61  30  31 E6        30.06S
RACINE         FAIR      58  41  53 N9        30.06F
6HR MIN TEMP:  45; 6HR MAX TEMP:  59;

BURLINGTON     FAIR      65  43  44 N6        30.03F
6HR MIN TEMP:  47; 6HR MAX TEMP:  65;

KENOSHA        FAIR      63  47  55 E8        30.04F
6HR MIN TEMP:  48; 6HR MAX TEMP:  63;

FOND DU LAC    FAIR      62  34  35 N8        30.05F
6HR MIN TEMP:  36; 6HR MAX TEMP:  62;

SHEBOYGAN      FAIR      55  46  71 NE9       30.05F
6HR MIN TEMP:  41; 6HR MAX TEMP:  57;

WEST BEND      FAIR      66  30  26 NE7       30.03F
JUNEAU         FAIR      64  32  29 N6        30.05F
6HR MIN TEMP:  42; 6HR MAX TEMP:  64;

$$

LSZ147-162-241900-
LAKE SUPERIOR

STATION/POSITION TIME  TEMP    WIND        PRES    WAVE
                       AIR SEA DIR/SP/G            HT/PER
                 (UTC) (F)     (DEG/KT/KT) (MB)    (FT/S)
DEVILS ISLAND    1800   43     110/  6/  7 1023.9F
SAXON HARBOR     1730   37     310/  7/  8 1022.7S
$$

LMZ867-665-643>646-241900-
LAKE MICHIGAN

STATION/POSITION TIME  TEMP    WIND        PRES    WAVE
                       AIR SEA DIR/SP/G            HT/PER
                 (UTC) (F)     (DEG/KT/KT) (MB)    (FT/S)
NORTHPORT PIER   1740



USA.gov is the U.S. government's official web portal to all federal, state and local government web resources and services.